K1TTC Weather Reports


Display with metric or nautical units.
time (UTC)temp
F
wind
direction
speed
MPH
gust
MPH
rain 1hr
in
rain 24hr
in
rain mn
in
humidity
%
barometer
mb
20260905234752 66 156 0.0 0.0 0.00 0.00 0.00 67 1014.2
20260905233753 66 156 0.0 0.0 0.00 0.00 0.00 67 1014.1
20260905232749 66 156 0.0 0.0 0.00 0.00 0.00 67 1014.0
20260905231752 66 156 0.0 0.0 0.00 0.00 0.00 67 1014.0
20260905230749 66 156 0.0 0.0 0.00 0.00 0.00 67 1013.9
20260905225747 66 156 0.0 0.0 0.00 0.00 0.00 67 1013.8
20260905224749 67 156 0.0 0.0 0.00 0.00 0.00 67 1013.7
20260905223747 67 156 0.0 0.0 0.00 0.00 0.00 66 1013.7
20260905222745 67 158 0.0 0.0 0.00 0.00 0.00 66 1013.6
20260905221745 67 178 0.0 2.0 0.00 0.00 0.00 66 1013.6
20260905220745 67 109 0.0 2.0 0.00 0.00 0.00 65 1013.7
20260905215740 67 355 1.0 3.0 0.00 0.00 0.00 65 1013.4
20260905214739 67 51 0.0 2.0 0.00 0.00 0.00 64 1013.3
20260905213734 67 104 0.0 2.0 0.00 0.00 0.00 64 1013.3
20260905212733 67 351 0.0 4.0 0.00 0.00 0.00 64 1013.0
20260905211731 67 20 2.0 10.0 0.00 0.00 0.00 64 1012.9
20260905210731 68 126 1.0 6.0 0.00 0.00 0.00 65 1012.9
20260905205729 69 150 1.0 8.0 0.00 0.00 0.00 64 1013.0
20260905204728 70 123 1.0 4.0 0.00 0.00 0.00 63 1013.2
20260905203725 71 10 1.0 6.0 0.00 0.00 0.00 62 1013.1
20260905202726 72 91 2.0 8.0 0.00 0.00 0.00 59 1013.1
20260905201725 73 346 2.0 7.0 0.00 0.00 0.00 57 1012.8
20260905200721 74 124 2.0 7.0 0.00 0.00 0.00 56 1012.6
20260905195723 74 122 3.0 8.0 0.00 0.00 0.00 57 1012.3
20260905194723 74 82 2.0 5.0 0.00 0.00 0.00 57 1012.3
20260905193723 73 115 1.0 6.0 0.00 0.00 0.00 57 1012.3
20260905192721 74 143 1.0 6.0 0.00 0.00 0.00 57 1012.3
20260905191721 74 55 1.0 4.0 0.00 0.00 0.00 57 1012.2
20260905190722 74 57 1.0 4.0 0.00 0.00 0.00 56 1012.2
20260905185721 74 74 1.0 4.0 0.00 0.00 0.00 56 1012.2
20260905184721 74 106 2.0 8.0 0.00 0.00 0.00 57 1012.2
20260905183714 74 341 1.0 5.0 0.00 0.00 0.00 57 1012.3
20260905182715 74 97 1.0 5.0 0.00 0.00 0.00 58 1012.3
20260905181715 74 132 2.0 8.0 0.00 0.00 0.00 59 1012.3
20260905180713 73 134 1.0 5.0 0.00 0.00 0.00 59 1012.3
20260905175713 73 66 1.0 6.0 0.00 0.00 0.00 60 1012.3
20260905174713 72 141 1.0 5.0 0.00 0.00 0.00 61 1012.3
20260905173713 72 276 1.0 5.0 0.00 0.00 0.00 60 1012.3
20260905172714 72 61 2.0 7.0 0.00 0.00 0.00 60 1012.1
20260905171710 72 130 1.0 5.0 0.00 0.00 0.00 58 1012.1
20260905170710 72 39 2.0 11.0 0.00 0.00 0.00 56 1011.9
20260905165709 73 76 2.0 9.0 0.00 0.00 0.00 56 1011.8
20260905162925 73 18 2.0 9.0 0.00 0.00 0.00 58 1011.8
20260905145919 73 311 3.0 12.0 0.00 0.00 0.00 59 1011.8
20260905141417 69 341 2.0 10.0 0.00 0.00 0.00 65 1012.0
20260905140417 69 23 0.0 3.0 0.00 0.00 0.00 66 1012.1
20260905135413 69 18 2.0 7.0 0.00 0.00 0.00 66 1012.0
20260905134412 69 20 0.0 3.0 0.00 0.00 0.00 68 1011.9
20260905133409 68 118 0.0 2.0 0.00 0.00 0.00 69 1011.9
20260905132411 68 351 0.0 0.0 0.00 0.00 0.00 69 1011.8
20260905131409 68 351 1.0 8.0 0.00 0.00 0.00 70 1011.7
20260905130411 67 351 2.0 7.0 0.00 0.00 0.00 71 1011.6
20260905125409 67 299 2.0 7.0 0.00 0.00 0.00 73 1011.5
20260905124408 66 13 1.0 5.0 0.00 0.00 0.00 74 1011.5
20260905123407 65 87 0.0 3.0 0.00 0.00 0.00 75 1011.3
20260905122408 65 351 0.0 4.0 0.00 0.00 0.00 76 1011.2
20260905121601 64 346 0.0 3.0 0.00 0.00 0.00 76 1011.2
20260905120404 64 357 0.0 3.0 0.00 0.00 0.00 76 1011.0
20260905115404 64 351 1.0 8.0 0.00 0.00 0.00 76 1011.0
20260905114403 63 41 1.0 5.0 0.00 0.00 0.00 76 1011.0
20260905113403 63 346 1.0 6.0 0.00 0.00 0.00 77 1010.8
20260905112403 62 357 1.0 6.0 0.00 0.00 0.00 76 1010.7
20260905111403 0 0.0 0.0 0.00 0.00 0.00 1010.8
20260905110404 0 0.0 0.0 0.00 0.00 0.00 1010.7
20260905105403 0 0.0 0.0 0.00 0.00 0.00 1010.7
20260905104406 0 0.0 0.0 0.00 0.00 0.00 1010.7
20260905103404 0 0.0 0.0 0.00 0.00 0.00 1010.7
20260905102404 0 0.0 0.0 0.00 0.00 0.00 1010.6
20260905101403 0 0.0 0.0 0.00 0.00 0.00 1010.5
20260905094331 0 0.0 0.0 0.00 0.00 0.00 1010.4
20260905090320 0 0.0 0.0 0.00 0.00 0.00 1010.3
20260905085321 0 0.0 0.0 0.00 0.00 0.00 1010.1
20260905084303 0 0.0 0.0 0.00 0.00 0.00 1010.1
20260905083304 0 0.0 0.0 0.00 0.00 0.00 1010.3
20260905082431 0 0.0 0.0 0.00 0.00 0.00 1010.1
20260905081304 0 0.0 0.0 0.00 0.00 0.00 1010.0
20260905080307 0 0.0 0.0 0.00 0.00 0.00 1010.1
20260905075306 0 0.0 0.0 0.00 0.00 0.00 1009.9
20260905074304 0 0.0 0.0 0.00 0.00 0.00 1010.0
20260905073231 0 0.0 0.0 0.00 0.00 0.00 1010.1
20260905072232 0 0.0 0.0 0.00 0.00 0.00 1010.2
20260905071231 0 0.0 0.0 0.00 0.00 0.00 1010.1
20260905070232 0 0.0 0.0 0.00 0.00 0.00 1010.1
20260905065231 0 0.0 0.0 0.00 0.00 0.00 1010.2
20260905064231 0 0.0 0.0 0.00 0.00 0.00 1010.3
20260905063229 0 0.0 0.0 0.00 0.00 0.00 1010.4
20260905062231 0 0.0 0.0 0.00 0.00 0.00 1010.5
20260905061350 0 0.0 0.0 0.00 0.00 0.00 1010.5
20260905060230 0 0.0 0.0 0.00 0.00 0.00 1010.5
20260905055230 0 0.0 0.0 0.00 0.00 0.00 1010.6
20260905054231 0 0.0 0.0 0.00 0.00 0.00 1010.5
20260905053230 0 0.0 0.0 0.00 0.00 0.00 1010.6
20260905052222 0 0.0 0.0 0.00 0.00 0.00 1010.5
20260905051222 0 0.0 0.0 0.00 0.00 0.00 1010.7
20260905045204 0 0.0 0.0 0.00 0.00 0.00 1010.6
20260905044204 0 0.0 0.0 0.00 0.00 0.00 1010.5
20260905043203 0 0.0 0.0 0.00 0.00 0.00 1010.5
20260905042206 0 0.0 0.0 0.00 0.00 0.00 1010.7
20260905041203 0 0.0 0.0 0.00 0.00 0.00 1010.6
20260905040204 0 0.0 0.0 0.00 0.00 0.00 1010.6
20260905035203 0 0.0 0.0 0.00 0.00 0.00 1010.5
20260905034205 0 0.0 0.0 0.00 0.00 0.00 1010.6
20260905033203 0 0.0 0.0 0.00 0.00 0.00 1010.7
20260905032205 0 0.0 0.0 0.00 0.00 0.00 1010.7
20260905031202 0 0.0 0.0 0.00 0.00 0.00 1010.7
20260905030205 0 333 0.0 0.0 0.00 0.00 0.00 1010.7
20260905025201 69 333 0.0 0.0 0.00 0.00 0.00 61 1010.8
20260905024201 69 333 0.0 0.0 0.00 0.00 0.00 61 1010.8
20260905023200 0 333 0.0 0.0 0.00 0.00 0.00 1010.9
20260905022203 158 333 0.0 0.0 0.00 0.00 0.00 75 1011.0
20260905021202 69 333 0.0 0.0 0.00 0.00 0.00 60 1011.0
20260905020201 69 333 0.0 0.0 0.00 0.00 0.00 60 1011.0
20260905015201 70 341 0.0 0.0 0.00 0.00 0.00 59 1011.0
20260905014201 70 341 0.0 0.0 0.00 0.00 0.00 59 1011.1
20260905013202 71 341 0.0 0.0 0.00 0.00 0.00 58 1011.2
20260905012203 71 341 0.0 1.0 0.00 0.00 0.00 57 1011.2
20260905011202 72 355 0.0 0.0 0.00 0.00 0.00 57 1011.2
20260905010201 72 355 0.0 0.0 0.00 0.00 0.00 56 1011.2
20260905005201 72 355 0.0 0.0 0.00 0.00 0.00 56 1011.2
20260905004201 73 351 0.0 0.0 0.00 0.00 0.00 56 1011.0
20260905003201 73 351 0.0 0.0 0.00 0.00 0.00 55 1011.1
20260905002201 73 351 0.0 0.0 0.00 0.00 0.00 55 1011.1
20260905001201 74 351 1.0 2.0 0.00 0.00 0.00 54 1011.1
20260905000204 75 3 0.0 1.0 0.00 0.00 0.00 55 1011.0
20260904235158 76 8 0.0 0.0 0.00 0.00 0.00 54 1010.8